Voltar ao catálogo

DMSP 5D-2 F11 DEB

AtivoSSO
NORAD 28343·DEBRIS·🇺🇸 United States

Lançado Nov 28, 1991 de Vandenberg Space Force Base

Loading…

Próximas Passagens (próximas 24 horas)

TLE

AtualizadoSource: Space-Track

Época: Sep 13, 2026, 12:35 UTC

1 28343U 91082BG  26256.52471717  .00003650  00000-0  11780-2 0  9998
2 28343  98.8867 353.5769 0058141 291.5763  67.9234 14.38848451148413

Acompanhe DMSP 5D-2 F11 DEB em tempo real com AllMySat

Download on the App Store